GW4731 Weather Reports


time (UTC)temp
F
wind
direction
speed
knots
gust
knots
rain 1hr
in
rain 24hr
in
rain mn
in
humidity
%
barometer
mb
20260504050328 42 246 0.0 0.0 0.00 0.00 0.00 69 1017.7
20260504045825 43 250 0.0 1.7 0.00 0.00 0.00 64 1017.7
20260504045320 42 267 0.9 1.7 0.00 0.00 0.00 66 1017.7
20260504044817 42 236 1.7 2.6 0.00 0.00 0.00 68 1017.8
20260504044314 43 227 1.7 3.5 0.00 0.00 0.00 66 1017.8
20260504043812 44 245 1.7 2.6 0.00 0.00 0.00 63 1017.7
20260504043308 44 246 1.7 2.6 0.00 0.00 0.00 65 1017.9
20260504042806 44 244 1.7 1.7 0.00 0.00 0.00 62 1017.7
20260504042304 43 246 0.9 1.7 0.00 0.00 0.00 66 1017.5
20260504041759 43 251 0.9 1.7 0.00 0.00 0.00 66 1017.8
20260504041255 45 243 0.0 0.9 0.00 0.00 0.00 62 1017.6
20260504040751 45 257 0.9 1.7 0.00 0.00 0.00 60 1017.9
20260504040249 44 270 0.0 0.9 0.00 0.00 0.00 61 1017.5
20260504035744 44 250 0.9 1.7 0.00 0.00 0.00 60 1017.6
20260504035242 44 254 1.7 1.7 0.00 0.00 0.00 62 1017.6
20260504034739 43 240 0.9 1.7 0.00 0.00 0.00 66 1017.5
20260504034236 44 246 0.0 0.0 0.00 0.00 0.00 63 1017.5
20260504033734 44 269 0.0 0.0 0.00 0.00 0.00 64 1017.7
20260504033231 45 263 0.0 0.9 0.00 0.00 0.00 62 1017.6
20260504032728 45 259 0.0 0.9 0.00 0.00 0.00 61 1017.5
20260504032225 47 262 0.9 0.9 0.00 0.00 0.00 58 1017.5
20260504031722 47 252 1.7 1.7 0.00 0.00 0.00 56 1017.4
20260504031219 46 244 1.7 1.7 0.00 0.00 0.00 56 1017.4
20260504030715 44 247 1.7 1.7 0.00 0.00 0.00 62 1017.6
20260504030213 43 235 0.0 0.0 0.00 0.00 0.00 66 1017.4
20260504025709 43 246 0.0 0.0 0.00 0.00 0.00 67 1017.5
20260504025205 44 239 0.0 0.9 0.00 0.00 0.00 63 1017.4
20260504024703 44 247 0.9 0.9 0.00 0.00 0.00 61 1017.5
20260504024159 42 236 0.0 0.0 0.00 0.00 0.00 68 1017.5
20260504023656 43 231 0.0 0.0 0.00 0.00 0.00 72 1017.3
20260504023152 45 234 0.0 0.9 0.00 0.00 0.00 67 1017.2
20260504022648 45 235 0.9 0.9 0.00 0.00 0.00 67 1017.3
20260504022144 44 234 0.0 0.0 0.00 0.00 0.00 66 1017.2
20260504021642 44 241 0.0 0.0 0.00 0.00 0.00 69 1017.1
20260504021139 42 227 0.0 0.0 0.00 0.00 0.00 70 1017.0
20260504020636 41 225 0.0 0.0 0.00 0.00 0.00 77 1016.8
20260504020132 44 323 0.0 0.0 0.00 0.00 0.00 69 1016.6
20260504015628 45 8 0.0 0.0 0.00 0.00 0.00 65 1016.7
20260504015125 46 338 0.0 0.0 0.00 0.00 0.00 65 1016.8
20260504014621 47 238 0.0 0.9 0.00 0.00 0.00 61 1016.8
20260504014118 47 220 0.9 0.9 0.00 0.00 0.00 60 1016.9
20260504013615 47 226 1.7 1.7 0.00 0.00 0.00 60 1017.0
20260504013112 47 230 1.7 1.7 0.00 0.00 0.00 59 1016.8
20260504012610 47 225 0.9 0.9 0.00 0.00 0.00 59 1016.8
20260504012108 47 239 0.9 1.7 0.00 0.00 0.00 58 1016.8
20260504011604 47 228 0.9 1.7 0.00 0.00 0.00 60 1016.8
20260504011100 50 243 0.0 0.0 0.00 0.00 0.00 51 1016.6
20260504010556 51 284 0.0 0.0 0.00 0.00 0.00 46 1016.7
20260504010052 51 238 0.0 0.0 0.00 0.00 0.00 45 1016.6
20260504005549 52 253 0.0 0.0 0.00 0.00 0.00 43 1016.5
20260504005046 52 259 0.0 0.0 0.00 0.00 0.00 43 1016.5
20260504004544 53 257 0.0 0.0 0.00 0.00 0.00 43 1016.5
20260504004041 53 272 0.0 0.9 0.00 0.00 0.00 41 1016.5
20260504003537 53 281 0.0 0.0 0.00 0.00 0.00 40 1016.4
20260504003034 54 260 0.9 0.9 0.00 0.00 0.00 39 1016.4
20260504002531 53 244 0.0 0.0 0.00 0.00 0.00 41 1016.5
20260504002028 53 259 0.0 0.0 0.00 0.00 0.00 41 1016.4
20260504001526 53 262 0.0 0.0 0.00 0.00 0.00 44 1016.2
20260504001022 54 264 0.0 0.0 0.00 0.00 0.00 41 1016.4
20260504000520 55 241 0.0 0.0 0.00 0.00 0.00 39 1016.4
20260504000017 56 248 0.9 0.9 0.00 0.00 0.00 38 1016.4
20260503235515 56 258 0.9 1.7 0.00 0.00 0.00 38 1016.2
20260503235011 56 287 1.7 1.7 0.00 0.00 0.00 39 1016.4
20260503234509 57 265 0.0 0.0 0.00 0.00 0.00 37 1015.9
20260503234007 58 265 0.9 0.9 0.00 0.00 0.00 38 1016.1
20260503233503 58 238 0.9 1.7 0.00 0.00 0.00 36 1016.0
20260503232959 58 263 1.7 2.6 0.00 0.00 0.00 35 1016.0
20260503232456 59 277 0.9 2.6 0.00 0.00 0.00 35 1016.0
20260503231954 59 254 0.9 2.6 0.00 0.00 0.00 33 1015.9
20260503231452 59 334 1.7 2.6 0.00 0.00 0.00 33 1015.8
20260503230948 59 258 3.5 6.1 0.00 0.00 0.00 32 1015.8
20260503230444 59 318 3.5 5.2 0.00 0.00 0.00 32 1015.9
20260503225942 60 275 1.7 3.5 0.00 0.00 0.00 32 1015.9
20260503225439 60 305 1.7 3.5 0.00 0.00 0.00 32 1015.8
20260503224934 61 286 2.6 6.1 0.00 0.00 0.00 31 1015.7
20260503224431 61 307 2.6 3.5 0.00 0.00 0.00 31 1015.8
20260503223929 62 238 0.0 2.6 0.00 0.00 0.00 34 1015.8
20260503223427 61 288 3.5 6.1 0.00 0.00 0.00 30 1015.8
20260503222922 62 323 3.5 5.2 0.00 0.00 0.00 31 1015.7
20260503222421 62 258 6.1 7.0 0.00 0.00 0.00 31 1015.7
20260503221919 62 320 1.7 3.5 0.00 0.00 0.00 31 1015.7
20260503221417 62 252 1.7 6.1 0.00 0.00 0.00 31 1016.0
20260503220913 62 238 3.5 7.0 0.00 0.00 0.00 31 1016.1
20260503220410 62 258 2.6 5.2 0.00 0.00 0.00 33 1015.9
20260503215907 62 248 6.1 7.8 0.00 0.00 0.00 29 1016.1
20260503215404 62 320 3.5 5.2 0.00 0.00 0.00 29 1015.9
20260503214901 62 316 2.6 6.1 0.00 0.00 0.00 33 1015.8
20260503214359 63 290 3.5 6.1 0.00 0.00 0.00 30 1016.0
20260503213856 63 236 1.7 3.5 0.00 0.00 0.00 30 1015.9
20260503213354 63 327 1.7 6.1 0.00 0.00 0.00 31 1015.9
20260503212850 63 228 3.5 7.0 0.00 0.00 0.00 30 1016.0
20260503212348 63 253 1.7 3.5 0.00 0.00 0.00 32 1015.8
20260503211845 63 218 2.6 5.2 0.00 0.00 0.00 31 1016.0
20260503211342 63 252 3.5 7.0 0.00 0.00 0.00 32 1015.9
20260503210837 63 358 3.5 7.8 0.00 0.00 0.00 32 1016.0
20260503210334 63 253 3.5 5.2 0.00 0.00 0.00 32 1016.0
20260503205829 63 288 1.7 5.2 0.00 0.00 0.00 32 1015.7
20260503205326 63 252 4.3 7.8 0.00 0.00 0.00 33 1015.8
20260503204823 63 288 1.7 6.1 0.00 0.00 0.00 31 1016.0
20260503204320 63 303 3.5 6.1 0.00 0.00 0.00 33 1015.9
20260503203817 63 276 2.6 3.5 0.00 0.00 0.00 32 1015.9
20260503203315 62 307 4.3 8.7 0.00 0.00 0.00 31 1016.0
20260503202811 63 289 7.8 9.6 0.00 0.00 0.00 32 1015.9
20260503202310 63 256 3.5 6.1 0.00 0.00 0.00 29 1016.2
20260503201807 61 221 3.5 7.8 0.00 0.00 0.00 31 1016.5
20260503201304 62 285 5.2 7.0 0.00 0.00 0.00 30 1016.6
20260503200802 62 326 4.3 7.0 0.00 0.00 0.00 32 1016.5
20260503200257 62 228 2.6 6.1 0.00 0.00 0.00 31 1016.4
20260503195755 62 356 5.2 8.7 0.00 0.00 0.00 33 1016.6
20260503195251 61 347 2.6 5.2 0.00 0.00 0.00 31 1016.8
20260503194749 62 358 5.2 7.8 0.00 0.00 0.00 32 1016.6
20260503194244 63 314 5.2 7.0 0.00 0.00 0.00 30 1016.8
20260503193741 62 325 1.7 6.1 0.00 0.00 0.00 33 1016.9
20260503193237 63 165 3.5 6.1 0.00 0.00 0.00 30 1016.9
20260503192733 63 235 1.7 6.1 0.00 0.00 0.00 32 1016.8
20260503192228 62 313 2.6 5.2 0.00 0.00 0.00 31 1017.0
20260503191725 61 245 1.7 2.6 0.00 0.00 0.00 32 1017.1
20260503191222 62 307 7.0 9.6 0.00 0.00 0.00 31 1017.3
20260503190719 62 260 1.7 3.5 0.00 0.00 0.00 37 1017.0
20260503190215 61 325 3.5 7.8 0.00 0.00 0.00 34 1017.2
20260503185713 62 329 2.6 6.1 0.00 0.00 0.00 34 1017.3
20260503185208 62 346 2.6 6.1 0.00 0.00 0.00 30 1017.3
20260503184703 61 276 0.9 7.8 0.00 0.00 0.00 40 1017.5
20260503184200 61 325 0.9 7.0 0.00 0.00 0.00 34 1017.6
20260503183656 60 317 7.0 8.7 0.00 0.00 0.00 32 1017.5
20260503183153 60 345 7.8 8.7 0.00 0.00 0.00 33 1017.5
20260503182651 60 258 3.5 7.0 0.00 0.00 0.00 31 1017.5
20260503182150 60 334 2.6 7.0 0.00 0.00 0.00 34 1017.6
20260503181646 59 256 3.5 5.2 0.00 0.00 0.00 35 1017.6
20260503181143 60 340 6.1 7.8 0.00 0.00 0.00 38 1017.7
20260503180640 59 322 5.2 7.8 0.00 0.00 0.00 36 1017.8
20260503180138 59 306 7.8 8.7 0.00 0.00 0.00 34 1017.9
20260503175635 60 300 1.7 6.1 0.00 0.00 0.00 35 1017.7
20260503175132 59 293 1.7 7.0 0.00 0.00 0.00 36 1017.8
20260503174628 60 331 7.0 7.8 0.00 0.00 0.00 36 1017.9
20260503174126 59 312 5.2 7.8 0.00 0.00 0.00 38 1017.9
20260503173620 59 276 5.2 7.0 0.00 0.00 0.00 36 1017.9
20260503173117 56 329 0.9 7.8 0.00 0.00 0.00 37 1018.0
20260503172614 58 315 2.6 7.0 0.00 0.00 0.00 38 1018.1
20260503172112 58 4 1.7 7.0 0.00 0.00 0.00 40 1018.1
20260503171608 56 252 4.3 5.2 0.00 0.00 0.00 40 1018.1
20260503171105 57 279 3.5 6.1 0.00 0.00 0.00 41 1018.1
20260503170601 58 241 1.7 7.0 0.00 0.00 0.00 37 1018.4
20260503150954 52 251 3.5 7.0 0.00 0.00 0.00 47 1018.8
20260503150450 53 319 5.2 9.6 0.00 0.00 0.00 43 1019.0
20260503131343 48 275 2.6 5.2 0.00 0.00 0.00 59 1018.8
20260503130841 48 267 1.7 5.2 0.00 0.00 0.00 59 1018.7
20260503130338 48 333 3.5 6.1 0.00 0.00 0.00 58 1019.0
20260503110732 40 291 0.9 1.7 0.00 0.00 0.00 73 1018.9
20260503110229 38 8 0.0 0.0 0.00 0.00 0.00 77 1018.8
20260503100155 35 263 0.0 0.0 0.00 0.00 0.00 83 1018.3
20260503090115 37 220 0.9 0.9 0.00 0.00 0.00 81 1017.8
20260503081550 39 246 0.0 1.7 0.00 0.00 0.00 77 1017.7
20260503081048 40 265 0.0 0.0 0.00 0.00 0.00 76 1017.6
20260503080544 40 263 0.0 0.9 0.00 0.00 0.00 76 1017.6
20260503072517 39 246 0.0 1.7 0.00 0.00 0.00 78 1017.2
20260503072015 39 263 1.7 1.7 0.00 0.00 0.00 78 1017.3
20260503071511 39 255 0.0 1.7 0.00 0.00 0.00 78 1017.2
20260503071008 38 249 0.0 0.9 0.00 0.00 0.00 79 1017.3
20260503070505 38 239 0.0 0.0 0.00 0.00 0.00 79 1017.1
20260503054928 41 266 0.9 1.7 0.00 0.00 0.00 72 1017.1
20260503054424 41 262 1.7 3.5 0.00 0.00 0.00 72 1017.1
20260503053922 41 265 1.7 1.7 0.00 0.00 0.00 72 1017.1
20260503053420 41 280 0.9 3.5 0.00 0.00 0.00 72 1016.9
20260503052916 41 294 1.7 3.5 0.00 0.00 0.00 71 1017.1
20260503052414 41 334 1.7 2.6 0.00 0.00 0.00 71 1017.1
20260503051910 41 340 2.6 5.2 0.00 0.00 0.00 71 1016.9